Simultaneous Nadir Overpasses (SNOs) Predictions

Prediction of SNOs between AQUA and METOP-B Satellite Orbit:

Table of predicted SNOs for the next 14.0 days since TLE Epoch: 8/31/2013
Index Date (AQUA) Time (AQUA) Lat,Lon (AQUA) SZA (AQUA ) Date (METOP-B) Time (METOP-B) Lat,Lon (METOP-B) SZA (METOP-B ) Distance(km) Time Diff (sec)
1 09/01/2013 09:57:07 -73.66,-154.67 114.50 09/01/2013 09:56:04 -73.68,-154.76 114.47 3.66 63
2 09/01/2013 10:46:36 73.74, 12.79 65.60 09/01/2013 10:46:42 73.75, 12.74 65.61 1.65 6
3 09/01/2013 11:36:07 -74.02, 179.81 114.09 09/01/2013 11:37:18 -74.05,-179.20 114.10 30.45 71
4 09/04/2013 05:31:19 -73.71, -88.32 113.43 09/04/2013 05:30:26 -73.70, -88.31 113.43 1.29 53
5 09/04/2013 06:20:47 73.75, 79.23 66.63 09/04/2013 06:21:04 73.77, 79.19 66.65 2.92 17
6 09/04/2013 07:10:27 -74.48,-114.82 112.57 09/04/2013 07:11:32 -74.47,-111.75 112.68 91.27 65
7 09/07/2013 01:05:29 -73.73, -21.91 112.36 09/07/2013 01:04:47 -73.71, -21.87 112.38 2.41 42
8 09/07/2013 01:54:57 73.77, 145.63 67.70 09/07/2013 01:55:25 73.79, 145.64 67.71 1.65 28
9 09/09/2013 20:39:39 -73.73, 44.56 111.32 09/09/2013 20:39:09 -73.73, 44.56 111.31 0.20 30
10 09/09/2013 21:29:07 73.77,-147.91 68.75 09/09/2013 21:29:47 73.80,-147.92 68.78 3.30 40
11 09/12/2013 15:24:09 73.00, -55.13 68.98 09/12/2013 15:23:04 72.98, -58.02 69.04 94.32 65
12 09/12/2013 16:13:49 -73.74, 110.98 110.24 09/12/2013 16:13:31 -73.73, 110.99 110.24 1.19 18
13 09/12/2013 17:03:17 73.79, -81.50 69.84 09/12/2013 17:04:09 73.81, -81.49 69.85 1.89 52




NCC Satellite Simultaneous Nadir Overpasses (SNOs) Prediction Service
